カタログに戻る

CZ-6A DEB

運用中PO
NORAD 54329·DEBRIS·🇨🇳 China

打ち上げ Nov 11, 2022 から Taiyuan Satellite Launch Center

Loading…

次のパス (今後24時間)

TLE

最新Source: Space-Track

元期: Sep 13, 2026, 20:44 UTC

1 54329U 22151BY  26256.86391407  .00015773  00000-0  15487-2 0  9993
2 54329  98.6375   4.8815 0085572 179.7336 180.3939 14.89530179204918

AllMySatでCZ-6A DEBをリアルタイム追跡

Download on the App Store